Powrót do katalogu

STARLINK-2482

AktywnyŁącznośćVLEO
NORAD 48139·PAYLOAD·🇺🇸 United States

Wystrzelony Apr 7, 2021 z Cape Canaveral Space Force Station

Loading…

Następne Przeloty (najbliższe 24 godziny)

TLE

ŚwieżeSource: CelesTrak SupGP

Epoka: Sep 15, 2026, 02:32 UTC

1 48139C 21027AZ  26258.10604167  .00046103  00000+0  14822-2 0  2585
2 48139  53.1595 351.2319 0000988  94.6531  84.3117 15.31687869    11

Śledź STARLINK-2482 w czasie rzeczywistym z AllMySat

Download on the App Store